CST,Max TemperatureF,Mean TemperatureF,Min TemperatureF,Max Dew PointF,MeanDew PointF,Min DewpointF,Max Humidity, Mean Humidity, Min Humidity, Max Sea Level PressureIn, Mean Sea Level PressureIn, Min Sea Level PressureIn, Max VisibilityMiles, Mean VisibilityMiles, Min VisibilityMiles, Max Wind SpeedMPH, Mean Wind SpeedMPH, Max Gust SpeedMPH,PrecipitationIn, CloudCover, Events, WindDirDegrees
2014-2-1,65,59,52,60,52,48,96,85,73,29.97,29.91,29.87,10,10,7,16,8,20,0.00,8,,150
2014-2-2,64,49,34,61,37,32,100,94,87,30.21,30.06,29.91,10,6,1,17,10,25,1.12,8,Rain-Snow-Thunderstorm,3
2014-2-3,48,39,30,33,30,25,96,77,58,30.30,30.22,30.12,10,10,8,17,9,22,0.00,5,,38
2014-2-4,35,33,31,35,32,29,100,93,85,30.16,30.00,29.88,10,4,0,15,7,20,0.88,8,Fog-Rain-Thunderstorm,9
2014-2-5,37,33,29,35,28,21,100,80,59,30.49,30.31,30.08,10,10,7,17,9,23,0.00,6,,322
2014-2-6,30,27,23,22,18,16,81,72,63,30.56,30.48,30.43,10,10,10,14,9,19,0.00,8,,11
2014-2-7,35,30,25,29,24,19,92,77,61,30.44,30.36,30.29,10,7,1,14,6,17,0.08,8,Rain-Snow,57
2014-2-8,40,35,30,38,33,28,100,93,85,30.29,30.20,30.11,8,4,2,10,3,11,T,8,Rain,54
2014-2-9,40,38,35,38,37,34,100,96,92,30.19,30.15,30.10,7,3,1,14,7,18,0.00,8,,42
2014-2-10,35,33,31,33,27,21,100,82,63,30.29,30.24,30.19,10,8,2,16,9,23,T,8,Rain,28
2014-2-11,31,29,26,24,20,11,92,68,43,30.36,30.27,30.20,10,8,4,16,9,23,0.24,8,Rain-Snow,13
2014-2-12,40,33,25,28,23,20,92,76,59,30.19,30.11,30.03,10,10,7,12,4,15,T,6,,339
2014-2-13,56,39,21,36,29,19,96,69,41,30.08,30.00,29.93,10,10,9,14,3,21,0.00,0,,210
2014-2-14,68,49,30,49,36,24,96,66,35,30.06,29.87,29.74,10,10,7,22,8,32,0.00,0,,247
2014-2-15,56,43,30,33,29,25,89,60,30,30.25,30.13,30.06,10,10,10,12,4,16,0.00,0,,97
2014-2-16,70,51,32,47,38,30,92,64,36,30.15,30.09,30.02,10,10,10,13,3,15,0.00,1,,107
2014-2-17,77,61,45,60,51,32,93,61,29,30.13,30.01,29.95,10,10,10,20,7,24,0.00,5,,208
2014-2-18,72,59,46,60,51,33,93,71,48,30.12,30.02,29.90,10,10,8,20,6,24,0.00,4,,165
2014-2-19,70,64,58,61,60,59,100,87,73,30.01,29.93,29.78,10,9,6,16,7,22,0.00,5,,163
2014-2-20,78,61,43,65,58,34,93,70,47,30.06,29.78,29.69,10,8,1,30,13,40,0.90,6,Rain-Thunderstorm,215
2014-2-21,63,47,30,37,29,17,96,58,19,30.18,30.11,30.06,10,10,10,10,2,13,0.00,0,,197
2014-2-22,69,53,37,37,34,30,92,58,23,30.10,30.02,29.91,10,10,10,17,5,21,0.00,0,,160
2014-2-23,75,58,41,58,45,36,86,72,57,30.14,30.01,29.92,10,10,10,18,6,25,0.00,5,,15
2014-2-24,55,46,36,38,33,26,70,58,46,30.23,30.16,30.10,10,10,10,21,8,25,0.00,5,,54
2014-2-25,54,47,40,39,36,32,86,70,54,30.18,30.11,30.03,10,10,4,16,8,21,0.09,8,Rain,31
2014-2-26,43,34,25,37,26,20,92,66,39,30.24,30.17,30.11,10,10,8,17,6,24,0.10,3,Rain,18
2014-2-27,53,37,20,24,17,8,88,54,19,30.18,30.09,30.00,10,10,10,9,3,12,0.00,0,,123
2014-2-28,50,42,34,43,33,20,80,62,44,30.01,29.96,29.89,10,10,9,16,7,21,0.01,5,Rain,112